Lid_Strength_Index
2 2 2 2 2 1 1 1 1 1 2 2 2 2 1 1 2 2 4 3 1 -3 -2 2 2 1 1 3 3 3 7 10 9 9 8 6 7 5 4 5 4 4 4 3 1
2 2 2 2 2 1 1 1 1 1 2 2 2 2 1 1 2 3 1 -2 -2 -4 1 3 2 2 2 4 3 5 8 9 6 6 7 6 6 6 6 6 6 5 3 2 2
2 2 2 2 2 2 2 1 1 1 1 2 2 2 1 1 3 2 -2 -3 -3 -2 2 2 1 2 4 3 4 5 8 6 6 5 5 6 6 5 6 7 5 6 4 3 3
2 2 2 3 2 2 2 2 2 2 2 2 2 1 1 1 6 2 -2 -2 -3 1 2 2 2 4 5 6 4 7 5 6 5 5 6 6 5 6 5 5 4 3 3 3 3
2 3 3 3 3 3 2 2 2 2 2 2 1 1 1 3 3 1 -3 -2 1 2 3 2 3 4 6 5 5 6 5 5 5 5 5 5 6 6 6 4 3 3 3 3 3
2 3 3 3 3 3 3 3 3 2 2 1 1 1 2 5 1 -1 -0 0 0 2 3 2 3 3 4 5 5 5 5 5 5 5 5 6 6 6 5 3 4 4 3 3 3
3 3 3 3 3 3 3 4 3 3 2 1 1 0 4 3 1 1 2 1 1 2 3 2 2 3 4 6 5 5 6 5 5 5 6 5 8 8 5 4 5 4 4 3 3
3 3 3 3 3 4 4 4 3 2 1 1 0 1 5 3 2 3 1 2 1 1 2 2 1 3 4 4 5 6 6 8 5 5 5 6 9 6 4 5 5 4 4 4 3
3 3 4 4 4 4 4 4 2 1 0 0 1 3 5 1 3 2 1 2 2 2 2 3 2 3 4 6 7 7 9 8 7 5 6 7 8 6 5 5 5 5 4 4 3
3 4 4 4 4 4 5 4 1 0 0 0 1 4 4 5 3 3 2 1 2 2 3 3 3 5 5 6 10 9 9 7 8 6 5 6 7 5 4 5 5 5 4 4 4
4 4 4 4 4 5 3 0 2 3 3 5 5 5 4 2 1 3 2 2 2 3 5 4 6 7 6 6 6 7 7 8 6 5 6 6 6 5 4 5 5 5 5 4 4
4 4 4 4 5 5 3 3 2 2 5 2 4 4 3 2 4 4 2 3 4 6 5 6 7 5 5 6 7 7 8 8 6 5 6 6 7 5 5 4 5 5 5 4 4
4 4 4 5 5 5 3 3 1 1 5 4 3 3 3 3 4 4 2 3 5 6 6 7 6 5 6 6 7 7 8 7 8 6 5 7 7 6 5 5 5 4 4 4 4
4 4 5 5 6 2 3 1 0 0 7 6 5 3 3 3 4 2 2 3 5 6 5 6 5 6 6 7 6 8 6 6 7 8 9 6 11 7 6 5 5 4 4 4 4
5 5 5 7 1 2 1 -0 0 1 11 5 5 2 3 4 4 4 2 3 5 6 5 7 6 6 7 6 6 7 6 6 7 8 8 8 9 8 6 6 5 5 4 4 3
5 5 5 5 2 1 0 0 2 8 12 7 5 5 5 4 5 4 4 3 3 5 5 5 4 5 6 5 5 5 6 6 6 7 10 8 9 9 7 6 5 5 4 4 4
6 6 6 2 2 -0 -0 2 8 10 6 7 7 5 6 6 6 5 6 6 7 8 8 6 6 5 4 6 5 6 7 10 11 11 11 8 9 8 6 5 5 5 5 4 3
6 6 4 2 -1 0 1 5 11 9 8 6 6 6 7 6 6 6 6 7 5 6 7 9 9 6 5 6 7 7 7 10 14 13 11 8 10 8 5 5 4 4 4 4 4
7 1 0 -1 -0 0 4 8 9 8 6 7 6 7 7 6 6 6 7 7 6 6 8 8 9 5 5 5 5 7 8 6 9 8 10 9 8 6 5 5 4 4 4 5 4
1 1 1 -0 -0 1 5 9 7 6 6 6 8 7 9 7 7 7 8 6 7 6 5 7 10 6 6 5 5 6 5 9 8 13 13 10 10 9 7 6 5 4 5 4 4
1 3 1 -1 -0 4 7 7 6 5 5 7 7 8 7 8 7 8 8 6 6 6 5 6 8 8 6 7 7 7 8 7 7 8 12 12 10 6 6 5 5 4 4 4 4
2 5 0 -0 5 4 6 6 8 6 5 5 5 6 7 7 8 8 8 7 5 5 7 6 7 10 8 6 5 6 7 7 10 10 9 10 10 5 5 5 5 5 4 4 3
3 3 -0 1 7 6 5 6 6 6 6 6 6 6 5 7 9 8 7 6 6 5 7 6 8 11 9 7 6 7 7 7 7 7 10 11 10 5 5 4 4 5 4 4 3
3 6 4 2 3 6 6 7 7 6 6 6 6 5 6 7 6 8 7 6 6 5 5 5 7 9 11 9 7 9 8 7 8 11 10 9 8 6 5 5 5 5 4 4 4
3 5 5 7 6 5 6 6 7 7 6 5 6 7 7 8 8 8 7 6 6 6 5 6 8 7 7 7 8 8 8 8 8 8 11 9 9 7 6 6 6 5 5 5 4
4 5 4 4 5 6 8 7 7 7 7 7 7 7 6 7 7 8 7 7 7 5 6 5 8 8 9 7 7 8 7 7 7 7 7 7 8 5 4 4 5 6 5 5 5
3 3 4 8 6 6 6 7 7 7 7 6 6 6 7 6 5 4 4 4 5 6 6 7 8 9 11 8 8 10 8 7 7 6 7 8 6 5 6 6 6 6 5 5 5